Temperature
28 29 29 29 29 29 29 30 30 30 30 31 31 30 27 26 25 24 23 22 21 21 20 20 19 19 19 18 18 18 17 17 17 17 16 16 16 16 16 16 16 16 16 16
27 28 28 28 29 29 29 29 30 30 30 31 29 27 26 25 24 24 23 22 21 21 20 20 19 19 18 18 18 17 17 17 17 16 16 16 16 16 16 16 16 16 15 15
27 28 27 27 28 29 29 29 30 30 30 29 28 27 25 24 24 23 22 22 21 20 20 20 19 19 18 18 17 17 17 17 16 16 16 16 16 16 15 15 15 15 15 15
27 26 25 28 29 29 29 29 29 29 29 28 27 25 23 23 22 22 21 21 20 20 19 19 19 18 18 18 17 17 17 16 16 16 16 15 15 15 15 15 15 15 14 14
26 26 27 27 27 28 28 28 28 28 28 26 25 24 23 21 21 21 20 19 19 19 19 19 18 18 18 17 17 17 16 16 16 15 15 15 15 15 15 15 14 14 14 14
25 26 26 27 27 25 27 27 27 26 26 25 25 27 25 20 19 19 19 18 18 18 18 18 18 18 17 17 17 16 16 15 15 15 15 15 15 15 14 14 14 14 13 13
25 25 27 26 25 25 26 26 24 24 24 24 24 24 21 19 18 18 17 17 17 17 17 17 17 17 17 17 16 16 15 15 15 15 15 15 14 14 14 14 13 13 13 13
25 25 25 23 25 25 23 21 21 22 22 22 21 20 19 18 17 17 17 17 17 17 17 17 17 17 16 16 16 15 15 15 14 14 14 14 14 13 13 13 13 12 12 12
24 24 22 21 21 20 19 20 20 20 20 20 19 18 18 17 17 16 16 16 16 16 16 16 16 16 16 15 15 15 14 14 14 14 13 13 13 13 12 12 12 12 11 11
22 23 21 20 19 19 19 19 19 19 19 19 18 17 17 16 16 16 15 15 15 15 15 15 15 15 15 15 14 14 14 14 13 13 12 12 12 12 12 11 11 11 11 11
21 21 20 19 18 18 18 18 18 18 18 18 17 17 16 15 15 15 15 15 15 15 14 14 14 14 14 14 14 13 13 13 12 12 12 12 11 11 11 11 11 10 10 10
22 20 21 19 17 17 17 17 17 17 17 17 16 16 15 15 14 14 14 14 14 14 14 14 14 14 14 13 13 13 12 12 12 11 11 11 10 10 10 10 10 10 10 9
19 18 18 17 16 16 16 16 16 16 16 16 15 15 15 15 14 14 14 13 13 13 13 13 13 13 13 13 12 12 12 12 11 11 10 10 10 10 9 9 9 9 9 9
16 16 16 16 16 16 16 16 16 15 15 15 15 14 14 14 14 13 13 13 13 13 13 13 13 13 12 12 12 12 11 11 11 10 10 10 9 9 9 9 8 8 8 8
16 16 16 16 15 15 15 15 15 15 14 14 14 14 14 14 13 13 13 12 12 12 12 12 12 12 12 12 11 11 11 11 10 10 10 9 9 9 9 8 8 8 7 7
15 15 15 15 15 15 15 15 15 14 14 14 13 13 13 13 13 12 12 12 12 11 11 11 12 11 11 11 11 11 10 10 10 10 9 9 9 9 8 8 8 8 7 7
15 15 15 15 15 14 14 14 14 14 13 13 13 13 12 12 12 12 11 11 11 11 11 11 11 11 10 10 10 10 10 10 9 9 9 9 9 9 8 8 8 8 7 7
14 14 14 14 14 14 14 13 13 13 13 13 12 12 12 12 12 11 11 11 10 10 10 10 10 10 10 10 10 10 10 9 9 9 9 9 8 8 8 8 8 7 7 6
13 13 13 13 13 13 13 13 13 13 12 12 12 12 12 11 11 11 10 10 10 10 10 10 10 10 9 9 9 9 9 9 9 9 8 8 8 8 8 8 7 7 7 7
12 12 12 12 12 12 12 12 12 12 12 12 12 11 11 11 10 10 10 10 10 10 10 9 9 9 9 9 9 9 9 9 9 8 8 8 8 8 8 8 7 7 7 7
12 12 12 12 12 12 12 12 11 11 11 11 11 11 10 10 10 10 10 10 9 9 9 9 9 9 9 9 9 9 9 9 8 8 8 8 8 8 8 7 7 7 7 7
11 11 11 11 11 11 11 11 11 11 11 10 10 10 10 10 10 10 10 10 9 9 9 9 9 9 9 9 9 9 9 8 8 8 8 8 8 8 8 7 7 7 7 7
11 11 11 11 10 10 10 10 10 10 10 10 10 10 10 10 10 10 9 9 9 9 9 9 9 9 9 9 9 9 9 8 8 8 8 8 8 8 7 7 7 7 7 7
10 10 10 10 10 10 10 10 10 10 10 10 10 9 9 9 9 9 9 9 9 9 9 9 9 9 8 9 9 9 8 8 8 8 8 8 8 8 7 7 7 7 7 6
10 10 10 9 9 9 9 9 9 9 9 9 9 9 9 9 9 9 9 9 9 9 9 9 9 8 8 8 9 9 9 9 9 8 8 8 8 8 8 7 7 7 7 7
9 9 9 9 9 9 9 9 9 9 9 9 9 9 9 9 9 9 9 8 8 9 9 8 8 8 8 8 8 8 8 8 8 8 8 8 8 8 8 7 7 7 7 7
9 9 9 9 9 9 9 9 9 9 9 9 8 8 9 9 9 8 8 8 8 8 8 8 8 8 9 8 8 8 8 8 8 8 8 8 8 8 8 7 7 7 7 7
Wind_Speed
12 6 9 12 15 17 18 16 14 11 12 9 6 5 6 8 9 10 11 12 12 11 11 10 9 9 8 7 6 6 6 6 5 4 3 3 2 2 2 1 1 1 1 2
13 11 11 12 13 14 16 15 15 12 10 4 2 4 6 8 10 11 12 12 12 11 11 10 10 9 8 7 7 6 5 5 5 4 4 3 3 3 2 2 1 2 1 1
12 11 11 15 14 13 13 13 13 13 7 2 3 5 6 8 9 10 11 11 11 11 11 10 10 9 9 8 7 7 6 5 5 4 4 3 3 3 3 3 3 3 3 3
9 10 14 8 5 10 12 11 10 7 3 2 2 3 4 6 8 9 9 10 10 10 10 10 9 9 9 9 8 7 6 5 4 4 4 4 4 4 4 3 3 3 4 4
10 13 11 6 5 6 9 9 7 7 4 2 3 5 4 4 6 8 8 9 9 9 10 10 10 10 9 9 8 7 6 5 5 4 4 4 5 5 4 4 4 4 4 5
10 12 12 7 5 3 6 8 2 3 4 4 5 6 3 6 6 7 8 8 9 10 10 10 10 10 10 9 8 7 6 5 5 5 5 5 5 5 5 5 5 5 5 5
12 12 8 4 3 5 9 3 2 0 2 5 4 1 6 7 7 8 9 10 10 11 10 10 10 10 9 9 8 7 7 6 6 6 6 6 6 5 6 6 6 6 7 7
11 13 8 3 3 4 2 5 3 1 1 2 4 6 8 9 9 9 10 10 11 10 10 9 9 10 10 9 8 7 8 7 7 6 6 6 7 6 6 6 6 6 6 6
5 3 3 2 1 3 3 3 3 1 1 4 6 8 9 9 9 9 10 10 10 11 11 9 8 9 9 9 8 8 8 8 7 7 7 6 6 6 5 5 5 5 5 5
3 2 1 1 2 2 3 2 1 0 3 6 7 9 9 9 9 9 9 10 10 11 11 9 8 9 9 9 8 9 9 7 7 7 7 7 6 6 6 5 5 5 5 5
6 3 2 2 3 3 3 2 2 3 5 6 9 10 9 9 9 8 9 9 9 10 10 10 9 9 9 8 9 9 9 8 8 8 8 9 9 8 7 7 5 4 5 5
5 2 2 1 3 3 3 3 4 5 6 7 9 10 10 9 9 9 9 9 9 10 10 10 10 9 8 8 8 9 8 8 7 7 7 8 9 10 16 13 16 16 13 9
3 1 1 1 1 1 2 4 5 6 7 8 9 9 10 9 9 9 9 9 10 10 10 10 10 9 8 7 8 9 9 8 7 7 7 7 7 8 9 11 16 17 15 14
3 3 2 1 0 2 3 5 6 7 8 9 9 9 10 10 9 9 9 9 10 10 10 10 10 9 8 8 8 9 10 9 8 7 7 7 7 8 8 8 9 9 10 12
5 4 4 2 2 4 5 6 7 7 8 9 9 9 10 10 10 9 9 9 10 10 9 10 10 9 8 8 9 9 9 8 8 8 8 8 8 8 8 9 9 8 8 8
5 4 5 5 5 5 6 7 7 7 7 8 8 9 10 11 10 10 9 9 10 10 9 9 9 9 8 9 10 9 8 10 8 8 9 8 8 8 8 8 8 7 7 7
6 6 7 7 6 6 6 6 7 7 7 8 9 10 10 11 11 10 9 9 9 10 9 9 10 9 9 10 10 9 10 10 9 8 8 8 8 8 8 7 7 7 7 6
7 6 6 6 6 6 6 6 7 8 8 9 10 10 10 10 11 11 10 11 11 11 10 10 10 10 10 9 9 9 9 9 8 8 8 8 8 7 7 8 8 8 7 6
6 6 5 5 6 6 7 7 7 8 9 9 10 9 10 10 11 11 11 11 11 11 10 10 10 11 11 10 9 8 9 9 9 9 8 8 7 7 7 7 7 7 6 6
5 5 5 6 7 7 7 8 8 8 9 9 10 10 11 11 12 12 12 10 8 9 11 11 11 10 11 9 6 8 9 9 9 9 8 7 7 7 6 6 6 6 5 5
5 6 7 7 7 8 8 9 9 9 9 10 10 10 11 11 11 11 11 10 9 10 11 10 9 9 9 8 6 8 9 8 8 8 8 7 7 6 6 6 6 5 5 4
5 6 7 8 8 8 8 9 10 10 11 10 10 11 12 12 12 10 9 9 10 9 9 9 8 9 8 7 7 8 8 8 7 7 7 7 6 6 6 5 5 5 4 4
6 7 8 9 9 9 9 9 10 10 11 11 11 11 12 11 10 10 10 9 10 8 7 8 10 10 6 5 6 7 7 7 6 6 6 6 5 5 5 5 4 4 4 4
7 8 9 9 10 11 10 10 10 9 11 10 10 10 11 10 8 7 9 10 9 8 8 10 11 8 6 6 6 7 6 6 5 5 6 6 5 5 5 4 4 4 4 4
8 9 10 11 10 10 11 12 12 12 11 9 10 9 8 7 8 9 10 11 11 9 9 10 9 6 5 5 6 6 5 5 4 5 5 5 5 5 4 4 4 3 3 3
8 8 8 9 9 10 9 10 9 9 9 9 8 8 8 8 9 9 9 11 11 9 9 8 8 6 5 5 6 5 5 6 5 4 4 4 4 3 3 3 4 3 3 3
9 9 8 9 9 9 9 9 10 9 9 9 9 9 9 9 9 10 11 10 9 8 7 7 7 6 5 5 5 5 5 4 4 4 4 3 3 3 3 4 4 3 4 3
Wind_Direction
243 234 211 210 211 211 222 235 243 241 244 253 246 219 189 175 170 169 168 168 166 163 157 158 156 156 155 152 150 150 151 149 147 147 148 151 144 139 144 165 187 186 195 211
226 225 227 227 221 217 224 234 241 249 249 262 234 180 175 176 176 176 173 171 166 161 158 159 157 157 154 152 151 151 151 147 145 146 145 139 132 126 125 126 118 106 99 106
217 210 216 223 219 216 218 224 231 235 240 216 206 192 185 181 181 178 173 169 166 163 161 159 159 157 156 151 147 146 145 141 141 143 137 132 130 122 114 107 99 93 84 81
215 197 221 216 205 223 225 227 232 245 255 237 224 182 172 180 179 172 167 164 163 161 158 155 151 148 145 141 141 143 141 138 138 132 123 119 113 105 101 98 95 90 80 77
218 214 216 188 188 209 217 219 225 234 230 202 158 156 145 150 162 165 160 155 154 156 151 145 143 140 136 135 136 134 131 129 126 122 116 110 103 97 94 95 92 88 83 81
220 227 221 191 160 196 224 214 197 228 216 192 190 217 164 132 141 145 141 140 142 140 138 137 137 138 136 133 130 128 124 120 117 116 116 110 103 100 96 95 91 87 79 73
221 225 220 100 131 187 214 205 56 276 207 196 205 0 111 123 127 130 130 132 134 133 130 129 131 133 131 126 122 119 119 116 110 110 109 106 99 96 98 97 92 87 84 75
220 229 216 89 180 211 358 7 5 35 158 158 120 110 119 119 122 125 127 129 131 128 122 122 128 129 124 119 115 113 112 108 104 101 101 103 101 95 95 99 99 95 91 83
230 236 69 88 26 4 343 331 336 356 114 139 135 128 122 120 122 123 124 125 127 126 120 117 119 124 123 119 118 115 112 108 105 101 95 97 99 98 95 90 92 95 95 89
236 193 104 57 25 1 345 325 319 151 142 145 136 130 125 123 122 122 122 125 126 125 120 113 111 111 113 116 118 117 114 110 106 103 98 89 80 77 79 78 86 90 91 91
231 222 200 118 46 28 30 47 91 113 127 133 133 130 126 122 119 121 124 124 124 123 120 115 111 108 110 114 118 117 114 110 106 101 97 88 75 60 67 58 55 75 86 85
234 187 237 81 32 24 53 78 102 116 118 120 128 128 125 122 122 124 122 122 121 121 120 118 115 111 108 112 120 121 117 113 111 110 109 109 103 86 61 64 60 58 56 69
268 292 335 311 349 25 83 103 110 116 120 119 118 121 121 121 122 122 121 123 123 124 123 121 117 112 112 117 122 122 123 121 120 118 119 119 118 113 103 80 69 62 59 64
227 225 229 221 152 109 114 119 116 114 116 117 119 121 122 121 120 120 120 121 122 123 122 120 116 112 116 121 122 122 122 119 122 122 123 121 118 115 113 111 103 88 71 71
228 234 230 213 169 143 136 133 128 123 118 118 121 124 125 124 122 119 119 122 122 121 121 119 115 113 119 123 122 123 124 124 122 121 121 119 118 115 112 110 108 107 107 97
229 217 207 198 186 172 164 159 150 139 131 124 123 122 121 120 120 120 123 128 128 124 122 119 116 119 124 125 122 117 111 109 121 124 123 122 122 120 117 117 116 115 112 114
217 212 205 200 194 185 176 168 157 149 140 133 128 127 125 123 121 119 118 118 117 118 118 118 118 121 123 125 124 122 121 121 126 126 122 120 119 118 120 121 117 113 106 88
228 226 217 205 193 183 170 159 152 149 143 138 135 135 134 132 130 127 125 120 116 112 113 117 119 120 119 120 121 123 125 128 124 118 117 117 118 121 122 120 121 118 118 119
209 210 208 200 188 177 165 157 152 147 144 144 141 136 132 131 130 130 130 129 126 121 118 118 121 124 122 121 122 123 122 121 118 116 116 122 125 122 124 126 125 124 124 125
194 187 185 181 168 163 158 153 150 147 146 143 137 135 135 134 134 133 132 126 120 121 127 130 131 124 126 130 138 126 124 124 123 125 129 132 127 129 129 128 127 126 123 121
179 174 171 163 155 153 154 151 147 145 145 143 141 142 140 138 138 137 134 123 116 121 127 131 131 129 129 132 146 127 126 127 129 132 135 136 136 136 133 130 128 127 128 127
166 164 159 151 148 148 149 147 147 146 144 141 140 141 141 141 139 134 124 122 129 137 142 139 134 122 129 144 135 128 127 130 133 136 138 141 143 143 140 139 138 137 136 135
155 153 149 148 148 145 142 145 147 146 143 141 142 144 145 143 143 140 133 132 141 158 150 131 122 126 151 152 128 129 129 132 136 140 141 144 144 146 147 149 149 150 152 157
143 141 140 142 142 140 139 137 133 131 130 128 131 135 136 135 130 126 125 128 133 146 132 120 130 146 180 143 135 136 139 143 146 145 145 147 150 153 154 158 161 163 166 175
135 134 135 137 135 133 129 126 123 122 122 122 124 128 130 130 131 129 131 135 139 141 128 130 143 168 174 142 141 142 146 141 140 145 148 152 155 155 159 165 170 176 183 187
129 129 129 131 130 130 130 129 127 127 126 127 128 128 125 124 125 128 131 136 136 133 132 139 149 173 157 144 143 142 137 139 151 158 141 151 155 156 161 173 187 195 199 203
123 123 123 123 124 127 128 129 130 131 132 132 131 132 133 133 133 135 137 139 140 139 139 144 150 153 148 147 145 146 148 153 156 156 159 169 173 181 179 191 204 208 218 218
Height
1485 1482 1484 1488 1491 1494 1496 1494 1497 1495 1494 1490 1491 1495 1500 1504 1508 1511 1514 1517 1520 1523 1526 1528 1531 1533 1535 1536 1538 1539 1540 1540 1541 1542 1543 1543 1544 1544 1544 1545 1545 1545 1545 1545
1491 1486 1487 1488 1487 1489 1491 1490 1491 1490 1490 1488 1492 1496 1500 1503 1506 1509 1513 1516 1519 1522 1525 1527 1529 1531 1533 1535 1537 1538 1539 1540 1540 1541 1542 1542 1543 1543 1543 1544 1544 1544 1544 1544
1490 1486 1490 1494 1486 1486 1488 1486 1487 1490 1488 1490 1493 1496 1499 1502 1504 1507 1511 1514 1517 1520 1523 1526 1528 1530 1532 1534 1536 1537 1538 1539 1540 1540 1541 1541 1542 1542 1542 1542 1542 1543 1543 1542
1485 1493 1504 1485 1479 1481 1483 1483 1484 1485 1487 1490 1493 1497 1500 1501 1504 1506 1510 1513 1516 1519 1521 1524 1527 1529 1531 1533 1534 1536 1538 1538 1539 1540 1540 1541 1541 1541 1541 1541 1541 1541 1541 1541
1486 1491 1489 1484 1482 1482 1484 1484 1484 1486 1489 1492 1494 1497 1499 1501 1503 1506 1509 1511 1514 1517 1520 1523 1525 1528 1530 1532 1533 1535 1537 1538 1538 1539 1540 1540 1540 1540 1540 1541 1540 1540 1540 1540
1486 1491 1493 1482 1481 1485 1486 1487 1486 1487 1489 1492 1493 1491 1496 1501 1503 1505 1508 1510 1513 1516 1519 1521 1524 1527 1529 1531 1532 1534 1536 1537 1538 1539 1539 1540 1540 1540 1540 1540 1540 1540 1540 1540
1486 1487 1478 1480 1483 1486 1492 1489 1489 1489 1491 1492 1493 1493 1498 1500 1503 1505 1507 1510 1512 1515 1518 1521 1523 1526 1528 1530 1532 1534 1535 1536 1537 1538 1539 1539 1539 1539 1539 1539 1539 1540 1540 1540
1484 1487 1485 1485 1484 1485 1488 1491 1490 1491 1492 1493 1495 1497 1499 1501 1503 1505 1508 1510 1513 1515 1518 1520 1523 1525 1527 1529 1531 1532 1534 1535 1536 1537 1538 1539 1539 1539 1539 1539 1539 1540 1540 1540
1480 1483 1487 1488 1489 1491 1492 1492 1492 1492 1493 1494 1496 1498 1500 1502 1504 1506 1509 1511 1514 1516 1518 1520 1523 1525 1527 1529 1530 1532 1533 1535 1536 1537 1538 1539 1539 1539 1539 1540 1540 1540 1540 1541
1485 1483 1487 1489 1491 1491 1492 1492 1492 1493 1494 1495 1497 1499 1501 1503 1505 1507 1509 1512 1514 1516 1518 1520 1523 1525 1527 1528 1530 1531 1533 1534 1536 1537 1538 1538 1538 1539 1539 1540 1540 1540 1541 1541
1484 1486 1488 1490 1492 1492 1492 1492 1493 1493 1494 1496 1497 1499 1501 1504 1506 1508 1510 1512 1514 1516 1518 1520 1523 1525 1527 1528 1530 1531 1533 1534 1535 1537 1537 1538 1538 1539 1540 1540 1540 1541 1541 1542
1482 1487 1488 1491 1492 1492 1492 1493 1493 1494 1496 1497 1498 1500 1502 1504 1506 1508 1510 1512 1514 1517 1519 1521 1523 1524 1526 1528 1530 1531 1533 1534 1535 1537 1538 1539 1540 1540 1541 1541 1542 1542 1542 1543
1488 1489 1490 1491 1492 1493 1493 1493 1494 1496 1497 1498 1499 1501 1503 1505 1507 1509 1511 1513 1515 1517 1519 1521 1523 1524 1526 1528 1530 1531 1532 1534 1536 1537 1539 1540 1541 1542 1542 1543 1544 1544 1545 1545
1488 1489 1490 1491 1492 1492 1493 1494 1495 1497 1498 1499 1501 1502 1504 1506 1508 1510 1512 1514 1516 1518 1520 1521 1523 1524 1526 1528 1529 1531 1533 1534 1536 1538 1539 1541 1542 1543 1544 1545 1546 1546 1547 1548
1487 1488 1489 1490 1491 1492 1493 1494 1496 1498 1499 1500 1502 1503 1505 1507 1509 1511 1513 1515 1516 1518 1520 1522 1523 1525 1527 1528 1530 1531 1533 1535 1537 1539 1540 1542 1543 1545 1546 1547 1548 1549 1550 1550
1485 1486 1487 1489 1490 1492 1493 1494 1496 1498 1500 1501 1503 1505 1506 1507 1510 1512 1513 1515 1517 1519 1521 1522 1523 1525 1527 1529 1530 1532 1534 1536 1538 1540 1542 1543 1545 1546 1548 1549 1550 1551 1552 1553
1483 1484 1486 1487 1489 1491 1492 1494 1496 1498 1499 1501 1503 1505 1506 1508 1510 1513 1515 1517 1519 1520 1521 1523 1525 1526 1528 1530 1532 1534 1535 1537 1539 1541 1543 1545 1546 1548 1549 1551 1552 1553 1554 1555
1481 1483 1484 1485 1487 1489 1491 1493 1495 1497 1499 1501 1503 1505 1507 1509 1511 1513 1516 1518 1520 1522 1523 1525 1526 1528 1530 1532 1533 1535 1537 1539 1541 1543 1544 1546 1548 1549 1551 1552 1554 1555 1556 1557
1478 1480 1482 1484 1486 1488 1490 1492 1494 1496 1499 1501 1503 1506 1508 1510 1512 1514 1517 1519 1521 1523 1525 1527 1528 1530 1532 1533 1535 1537 1539 1541 1543 1544 1546 1548 1550 1552 1553 1554 1556 1557 1558 1559
1476 1478 1480 1482 1484 1486 1488 1491 1493 1496 1499 1501 1503 1505 1508 1511 1513 1515 1518 1521 1523 1525 1526 1528 1530 1532 1534 1536 1538 1540 1542 1543 1545 1547 1549 1550 1552 1554 1555 1557 1558 1559 1560 1560
1474 1476 1478 1480 1483 1485 1488 1490 1493 1495 1498 1501 1503 1506 1508 1511 1514 1517 1519 1522 1524 1526 1528 1530 1533 1534 1537 1538 1540 1542 1544 1545 1547 1549 1550 1552 1554 1556 1557 1558 1559 1560 1561 1561
1473 1475 1477 1479 1481 1484 1487 1490 1493 1495 1498 1501 1504 1506 1509 1512 1515 1518 1521 1523 1525 1528 1530 1533 1535 1537 1538 1540 1543 1544 1546 1548 1549 1551 1552 1554 1556 1557 1558 1559 1560 1561 1561 1562
1472 1474 1476 1479 1481 1484 1487 1490 1493 1496 1498 1501 1504 1507 1510 1513 1516 1519 1522 1525 1527 1530 1533 1535 1536 1538 1540 1543 1545 1546 1548 1550 1551 1553 1554 1555 1557 1558 1559 1560 1561 1561 1562 1562
1472 1474 1476 1479 1481 1484 1487 1490 1493 1496 1499 1502 1505 1508 1511 1514 1517 1521 1523 1526 1528 1531 1534 1536 1538 1540 1542 1545 1547 1548 1550 1551 1553 1554 1555 1556 1557 1558 1559 1560 1561 1561 1562 1562
1472 1474 1477 1479 1482 1485 1488 1490 1493 1497 1501 1504 1507 1510 1513 1516 1518 1522 1524 1527 1530 1533 1536 1538 1540 1542 1544 1547 1548 1550 1551 1553 1554 1555 1556 1557 1558 1559 1559 1560 1560 1561 1561 1561
1473 1476 1478 1481 1484 1486 1489 1492 1495 1499 1502 1506 1509 1512 1515 1518 1520 1523 1526 1529 1532 1535 1537 1539 1541 1543 1546 1547 1549 1550 1552 1553 1554 1555 1556 1557 1558 1558 1559 1559 1560 1560 1560 1561
1476 1478 1480 1484 1486 1489 1492 1495 1498 1501 1505 1508 1511 1514 1517 1520 1523 1526 1529 1532 1535 1537 1539 1541 1543 1545 1547 1548 1550 1551 1552 1553 1554 1555 1556 1557 1557 1558 1558 1558 1559 1559 1559 1559